EHI
0 0 0 0 0 0 0 0 0 0 0 0 0 0 0 0 0 0 0 0 0 0 0 0 0 0 0 0 0 0 0 0 0 0 0 0 0 0 0 0 0 0 0
0 0 0 0 0 0 0 0 0 0 0 0 0 0 0 0 0 0 0 0 0 0 0 0 0 0 0 0 0 0 0 0 0 0 0 0 0 0 0 0 0 0 0
0 0 0 0 0 0 0 0 0 0 0 0 0 0 0 0 0 0 0 0 0 0 0 0 0 0 0 0 0 0 0 0 0 0 0 0 0 0 0 0 0 0 0
0 0 0 0 0 0 0 0 0 0 0 0 0 0 0 0 0 0 0 0 0 0 0 0 0 0 0 0 0 0 0 0 0 0 0 0 0 0 0 0 0 0 0
0 0 0 0 0 0 0 0 0 0 0 0 0 0 0 0 0 0 0 0 0 0 0 0 0 0 0 0 0 0 0 0 0 0 0 0 0 0 0 0 0 0 0
0 0 0 0 0 0 0 0 0 0 0 0 0 0 0 0 0 0 0 0 0 0 0 0 0 0 0 0 0 0 0 0 0 0 0 0 0 0 0 0 0 0 0
0 0 0 0 0 0 0 0 0 0 0 0 0 0 0 0 0 0 0 0 0 0 0 0 0 0 0 0 0 0 0 0 0 0 0 0 0 0 0 0 0 0 0
0 0 0 0 0 0 0 0 0 0 0 0 0 0 0 0 0 0 0 0 0 0 0 0 0 0 0 0 0 0 0 0 0 0 0 0 0 0 0 0 0 0 0
0 0 0 0 0 0 0 0 0 0 0 0 0 0 0 0 0 0 0 0 0 0 0 0 0 0 0 0 0 0 0 0 0 0 0 0 0 0 0 0 0 0 0
0 0 0 0 0 0 0 0 0 0 0 0 0 0 0 0 0 0 0 0 0 0 0 0 0 0 0 0 0 0 0 0 0 0 0 0 0 0 0 0 0 0 0
0 0 0 0 0 0 0 0 0 0 0 0 0 0 0 0 0 0 0 0 0 0 0 0 0 0 0 0 0 0 0 0 0 0 0 0 0 0 0 0 0 0 0
0 0 0 0 0 0 0 0 0 0 0 0 0 0 0 0 0 0 0 0 0 0 0 0 0 0 0 0 0 0 0 0 0 0 0 0 0 0 0 0 0 0 0
0 0 0 0 0 0 0 0 0 0 0 0 0 0 0 0 0 0 0 0 0 0 0 0 0 0 0 0 0 0 0 0 0 0 0 0 0 0 0 0 0 0 0
0 0 0 0 0 0 0 0 0 0 0 0 0 0 0 0 0 0 0 0 0 0 0 0 0 0 0 0 0 0 0 0 0 0 0 0 0 0 0 0 0 0 0
0 0 0 0 0 0 0 0 0 0 0 0 0 0 0 0 0 0 0 0 0 0 0 0 0 0 0 0 0 0 0 0 0 0 0 0 0 0 0 0 0 0 0
0 0 0 0 0 0 0 0 0 0 0 0 0 0 0 0 0 0 0 0 0 0 0 0 0 0 0 0 0 0 0 0 0 0 0 0 0 0 0 0 0 0 0
0 0 0 0 0 0 0 0 0 0 0 0 0 0 0 0 0 0 0 0 0 0 0 0 0 0 0 0 0 0 0 0 0 0 0 0 0 0 0 0 0 0 0
0 0 0 0 0 0 0 0 0 0 0 0 0 0 0 0 0 0 0 0 0 0 0 0 0 0 0 0 0 0 0 0 0 0 0 0 0 0 0 0 0 0 0
0 0 0 0 0 0 0 0 0 0 0 0 0 0 0 0 0 0 0 0 0 0 0 0 0 0 0 0 0 0 0 0 0 0 0 0 0 0 0 0 0 0 0
0 0 0 0 0 0 0 0 0 0 0 0 0 0 0 0 0 0 0 0 0 0 0 0 0 0 0 0 0 0 0 0 0 0 0 0 0 0 0 0 0 0 0
0 0 0 0 0 0 0 0 0 0 0 0 0 0 0 0 0 0 0 0 0 0 0 0 0 0 0 0 0 0 0 0 0 0 0 0 0 0 0 0 0 0 0
0 0 0 0 0 0 0 0 0 0 0 0 0 0 0 0 0 0 0 0 0 0 0 0 0 0 0 0 0 0 0 0 0 0 0 0 0 0 0 0 0 0 0
0 0 0 0 0 0 0 0 0 0 0 0 0 0 0 0 0 0 0 0 0 0 0 0 0 0 0 0 0 0 0 0 0 0 0 0 0 0 0 0 0 0 0
0 0 0 0 0 0 0 0 0 0 0 0 0 0 0 0 0 0 0 0 0 0 0 0 0 0 0 0 0 0 0 0 0 0 0 0 0 0 0 0 0 0 0
0 0 0 0 0 0 0 0 0 0 0 0 0 0 0 0 0 0 0 0 0 0 0 0 0 0 0 0 0 0 0 0 0 0 0 0 0 0 0 0 0 0 0
0 0 0 0 0 0 0 0 0 0 0 0 0 0 0 0 0 0 0 0 0 0 0 0 0 0 0 0 0 0 0 0 0 0 0 0 0 0 0 0 0 0 0
Wind_Speed
6 5 5 6 5 6 7 8 12 12 11 9 8 8 6 5 5 5 7 7 7 7 6 5 5 5 4 4 4 3 4 3 4 3 5 5 4 3 7 5 7 8 11
6 5 5 5 5 6 8 9 11 11 11 8 6 5 5 4 4 4 6 7 7 6 6 6 4 4 4 6 5 4 3 3 4 3 3 5 6 5 7 4 6 7 11
12 8 7 6 7 8 8 9 10 11 11 11 9 8 6 4 4 4 4 5 6 7 6 6 5 5 4 4 4 4 3 2 3 3 4 3 5 8 4 4 3 6 6
9 9 9 9 9 7 8 10 11 11 11 10 10 11 7 5 4 3 3 5 6 6 6 6 5 4 3 3 3 3 2 3 3 3 2 1 3 4 7 5 5 6 6
14 13 12 12 9 8 8 9 10 10 9 8 10 9 6 4 4 5 6 5 5 5 5 5 4 3 3 3 3 4 4 3 2 2 3 2 2 3 5 10 7 7 6
12 10 8 11 9 8 8 8 10 8 8 9 9 9 9 8 8 6 5 4 3 3 4 4 3 3 3 3 3 4 4 3 3 3 3 3 3 5 5 9 11 8 6
16 15 14 13 12 10 9 9 11 9 8 10 9 9 9 9 8 7 5 4 2 2 2 2 2 2 3 4 4 4 4 4 4 4 3 3 4 4 5 9 13 13 7
16 16 15 15 14 12 10 10 11 10 9 10 9 8 9 7 6 6 5 4 3 2 1 2 2 3 4 4 4 3 4 4 5 6 5 4 4 4 4 6 11 15 10
18 16 14 13 13 12 10 10 12 10 9 10 10 9 8 8 7 6 5 3 2 2 2 2 3 4 4 5 5 4 5 5 5 5 5 4 4 4 5 6 7 9 17
15 14 14 13 12 10 9 8 9 10 9 9 8 8 8 7 7 6 5 4 2 2 3 3 4 4 5 5 5 5 6 6 6 4 5 4 4 5 6 6 6 6 11
18 15 13 11 11 10 9 9 9 9 8 8 8 8 7 7 6 5 4 3 2 3 3 4 4 5 6 6 6 6 7 7 7 6 5 6 6 6 7 7 8 8 8
15 13 12 11 11 11 9 9 8 8 7 7 8 7 7 6 6 5 3 3 3 3 3 4 5 6 6 7 7 8 8 7 8 7 5 6 7 8 8 8 9 9 9
13 11 12 12 12 11 9 8 8 8 8 8 8 7 6 6 5 4 3 3 3 3 4 4 5 6 7 7 7 7 7 7 7 6 6 6 8 9 9 10 10 9 9
15 14 12 10 11 11 10 10 8 8 9 8 8 7 5 5 4 3 2 2 3 3 5 5 6 6 7 7 7 7 7 7 7 6 6 7 7 10 11 11 8 8 10
15 15 14 12 12 11 10 10 9 8 9 9 7 5 4 4 3 3 2 2 3 4 5 6 7 7 7 7 10 8 8 7 7 6 7 8 13 18 16 13 11 12 11
15 14 13 12 12 12 12 11 9 9 9 8 6 5 4 3 3 2 2 3 4 5 5 6 6 7 8 17 21 17 9 7 7 8 8 9 12 16 22 25 26 24 18
14 15 14 13 12 12 12 12 9 9 8 7 6 5 4 3 3 3 3 4 4 5 6 6 6 7 10 19 21 22 13 8 8 9 9 11 12 18 11 19 25 21 26
12 11 12 11 10 10 11 10 9 9 8 7 6 5 4 4 3 3 3 3 3 4 5 6 7 7 10 19 20 22 10 8 8 9 10 10 10 12 17 15 13 12 10
10 10 11 12 12 12 12 12 9 8 7 6 5 4 4 3 2 2 3 3 3 4 5 6 6 7 10 16 19 20 7 8 10 9 9 11 10 21 28 19 14 11 12
12 13 13 14 13 10 11 11 9 7 7 6 5 4 3 2 2 2 3 3 4 5 5 6 6 7 8 15 20 21 6 7 8 8 9 17 21 26 26 14 9 13 15
13 13 13 11 10 9 10 10 8 7 6 5 5 4 3 2 2 3 3 4 4 5 6 6 6 7 9 14 19 21 9 8 9 9 8 9 23 24 24 22 11 18 20
11 11 12 10 7 8 10 10 7 6 5 5 4 4 4 3 3 3 4 4 5 5 6 5 6 5 7 12 16 21 20 19 10 9 7 9 22 25 25 18 21 26 21
9 9 11 10 7 7 9 9 6 5 5 5 4 4 4 4 3 3 4 4 4 4 5 5 5 6 5 8 18 21 22 23 13 9 17 20 23 22 14 20 24 19 10
9 9 10 10 6 6 7 7 6 5 6 5 4 3 3 3 3 3 3 3 4 5 5 6 7 7 6 6 7 7 9 14 11 8 12 19 20 17 18 16 13 9 10
6 7 9 9 7 6 7 6 6 6 6 5 3 2 2 2 3 3 3 4 3 7 8 5 5 8 7 12 22 16 11 10 11 12 5 6 8 8 10 10 9 10 11
7 8 8 8 7 7 7 5 5 6 5 3 2 1 2 2 3 3 4 8 10 15 15 15 14 11 16 23 23 23 24 24 23 14 8 8 8 9 11 12 12 11 11
Wind_Direction
205 185 145 134 125 118 123 130 131 129 125 124 122 116 106 97 85 79 79 76 73 68 65 59 46 45 53 42 27 9 356 346 340 338 321 324 337 18 9 0 359 360 357
191 175 142 138 130 120 119 122 127 129 128 128 122 116 114 100 86 80 70 70 71 66 67 62 54 42 43 34 26 20 4 345 4 359 347 343 335 345 332 339 359 356 347
182 171 151 140 126 125 130 131 131 129 126 125 120 113 94 84 79 77 71 66 73 69 68 66 63 49 46 32 15 15 27 353 343 16 57 7 320 315 303 341 330 341 324
173 164 155 144 136 135 132 132 133 131 132 133 134 133 130 133 140 128 103 77 69 70 66 63 57 48 39 25 359 15 8 21 2 358 46 220 251 303 310 311 310 309 312
172 167 160 145 133 132 129 130 129 130 131 126 126 122 117 117 114 108 101 84 68 66 65 63 55 42 27 10 3 5 12 21 13 349 330 322 283 240 273 298 306 309 301
163 154 144 132 124 123 122 125 125 126 127 123 122 125 127 126 122 121 117 102 78 56 50 55 48 31 12 358 351 354 0 358 351 334 322 311 298 302 291 297 304 298 289
159 157 152 145 139 135 131 130 128 125 123 119 118 123 126 126 127 130 128 122 101 75 35 38 29 14 356 351 351 351 347 339 335 316 299 288 276 281 291 304 308 303 292
162 162 157 151 144 140 136 132 128 125 123 120 119 117 118 115 115 118 119 119 129 147 96 48 24 8 358 351 349 339 328 322 312 310 304 293 290 294 297 299 308 307 301
164 161 155 152 146 144 142 140 134 129 125 123 120 115 113 111 111 108 106 110 122 119 63 32 8 354 346 338 337 325 312 309 303 302 300 297 294 299 295 292 291 297 306
159 158 158 155 148 140 135 132 131 130 127 123 120 117 110 109 110 110 113 114 98 63 37 8 350 337 331 329 327 312 305 306 302 299 302 301 299 302 300 296 292 285 290
163 162 160 154 140 133 135 133 128 125 121 115 110 109 107 107 108 111 116 112 84 50 18 349 337 330 325 322 315 306 304 300 298 297 301 298 302 305 304 299 294 290 285
158 158 155 146 142 142 140 134 129 123 119 113 108 106 107 109 112 115 111 94 61 21 351 336 329 326 323 317 309 303 305 297 297 293 294 293 309 308 304 300 296 293 283
153 153 153 152 149 145 138 131 127 123 119 113 109 107 111 117 121 117 96 66 32 353 338 332 329 325 319 312 302 293 293 294 290 284 281 286 302 306 302 297 292 288 293
161 159 156 152 147 142 139 134 127 125 122 116 114 118 127 131 127 112 83 41 4 342 337 336 330 322 315 304 298 300 299 294 286 272 267 275 291 298 298 296 291 300 299
166 165 161 154 147 142 138 135 130 126 125 122 123 130 133 126 118 99 55 17 359 351 346 341 331 326 320 319 325 318 309 304 296 275 263 271 302 308 306 308 311 306 300
170 164 157 152 149 145 141 137 132 130 129 129 131 130 127 122 111 82 40 17 3 353 349 339 326 322 329 333 336 334 320 313 302 284 275 285 298 299 310 312 308 306 307
163 160 158 154 148 146 143 140 135 132 128 126 127 131 130 117 94 63 37 13 354 346 337 326 320 315 318 337 341 340 341 331 318 304 299 305 309 313 300 295 300 306 309
145 141 138 133 128 124 126 123 126 126 125 125 130 133 125 109 81 50 21 350 334 332 317 310 310 311 324 340 342 342 348 325 312 305 301 295 291 293 299 301 306 306 312
120 122 125 126 122 126 128 125 122 122 122 126 128 124 118 104 69 23 351 332 321 315 303 302 310 315 320 333 336 338 319 313 309 304 302 306 300 303 315 320 318 319 308
103 110 112 114 117 122 124 123 124 121 124 126 124 118 112 100 53 0 334 317 307 297 303 311 312 310 306 321 331 329 305 303 302 297 295 307 312 317 326 329 326 317 311
102 107 108 111 118 121 121 120 119 123 126 122 116 106 88 58 34 5 327 312 311 314 317 312 310 306 311 324 328 325 321 306 307 310 309 307 320 328 331 332 322 310 320
100 105 107 106 109 117 119 116 120 126 121 114 104 84 57 33 27 1 329 322 324 321 318 315 313 302 306 323 324 327 327 326 318 315 313 318 329 331 332 329 319 324 329
103 104 110 105 98 105 117 122 133 128 115 102 85 63 44 33 18 350 331 326 325 322 319 316 317 319 312 314 326 330 333 333 331 319 326 331 332 333 330 321 325 329 321
108 111 109 109 104 105 110 121 126 117 107 96 78 60 46 11 349 339 325 321 320 320 318 324 325 321 316 307 308 315 322 329 327 323 329 333 331 329 325 325 324 319 313
116 118 120 121 121 119 112 112 113 109 102 94 79 55 15 336 328 329 322 328 311 325 334 324 316 324 322 327 337 338 332 337 328 335 327 321 323 322 323 322 320 320 320
122 121 121 124 126 120 113 108 106 108 109 101 81 5 325 320 322 321 323 340 342 338 341 340 337 327 329 333 337 339 341 341 339 340 326 324 322 321 323 322 320 319 318